sat.trackr.live / text

‹ back to catalog

SJ-9A

NORAD 38860 · 2012-056A

PAYLOAD ACTIVE UNKNOWN

§ Identity

Operator
Country
PRC
Launch date
2012-10-14
Launch site
TAISC
Launch vehicle
Mass (kg)
RCS (m²)
2.53

External: N2YO · Heavens-Above · Gunter

§ Orbital elements

Epoch: 2026-09-20T04:53:14.439840Z

Period
96.93 min
Inclination
97.6836°
Eccentricity
0.0024234
Mean motion
14.85648876 rev/d
Perigee alt
594.6 km
Apogee alt
628.5 km
Semi-major
6,989.7 km
B*
8.1570e-5
RAAN
231.7867°
Arg perigee
307.0517°
Mean anomaly
52.8482°
Rev number
71,369

§ Raw data

SJ-9A1 38860U 12056A   26263.20363935  .00000657  00000+0  81570-4 0  99912 38860  97.6836 231.7867 0024234 307.0517  52.8482 14.85648876713690

JSON: /api/v1/satellites/38860 · /tle

For live sub-satellite position, see the globe view (requires WebGL).

§ Visibility from observer

Set your observer location to see the next 7 days of passes ≥ 10°. The values pass through the URL so the page stays shareable.

No JS? Fill the form by hand. The geolocation button needs JavaScript.

§ Radio — SatNOGS DB

ModeDescriptionDownlinkUplink
FM Mode S 2.214 GHz

1 transmitter · refreshed weekly from db.satnogs.org